Location: Gunung Kajang
(2.4167°N, 113.7167°E)
Time: 15:27:56
(UTC+00:00)

Cosmos 1727 Rocket - Pass Details

Date: 29 May 2022
Orbit: 961 x 996 km, 82.9° (Epoch: 28 June)

Event Time Altitude Azimuth Distance (km) Brightness Sun altitude
Rises 21:22:55 0° 191° (S) 3,660 6.7 -12.9°
Reaches altitude 10° 21:25:27 10° 195° (SSW) 2,717 6.0 -12.3°
Maximum altitude 21:31:33 60° 273° (W) 1,114 4.1 -10.9°
Drops below altitude 10° 21:37:43 10° 352° (N) 2,733 6.5 -9.5°
Sets 21:40:17 0° 356° (N) 3,684 7.3 -8.9°
